• In Hungary
  • List of Countries
  • For 7 days
  • Water Temperature
  • Satellite Maps
  • Weather Map
  • News
  • Weather Widgets
  • user-avatar
    Login

    Hourly Weather Murzasichle

    Today, 22 May, Tuesday

    Time Temperature Precipitation Wind Pressure Humidity
    00:00 +8°C° 0 mm 1 mps 688 mmHg 93%
    01:00 +7°C° 0 mm 1 mps 688 mmHg 93%
    02:00 +7°C° 0 mm 1 mps 688 mmHg 92%
    03:00 +7°C° 0 mm 1 mps 687 mmHg 92%
    04:00 +7°C° 0 mm 1 mps 687 mmHg 92%
    05:00 +9°C° 0 mm 1 mps 688 mmHg 87%
    06:00 +12°C° 0 mm 1 mps 689 mmHg 81%
    07:00 +14°C° 0 mm 1 mps 689 mmHg 75%
    08:00 +15°C° 0 mm 1 mps 689 mmHg 68%
    09:00 +18°C° 0 mm 1 mps 690 mmHg 62%
    10:00 +19°C° 0 mm 2 mps 690 mmHg 55%
    11:00 +19°C° 0.1 mm 2 mps 690 mmHg 53%
    12:00 +20°C° 0.1 mm 2 mps 690 mmHg 51%
    13:00 +20°C° 0.1 mm 2 mps 690 mmHg 50%
    14:00 +20°C° 0.1 mm 2 mps 690 mmHg 53%
    15:00 +20°C° 0.1 mm 2 mps 690 mmHg 56%
    16:00 +19°C° 0.1 mm 2 mps 689 mmHg 59%
    17:00 +18°C° 0.2 mm 2 mps 689 mmHg 68%
    18:00 +16°C° 0.2 mm 1 mps 689 mmHg 78%
    19:00 +14°C° 0.2 mm 1 mps 689 mmHg 87%
    20:00 +13°C° 0.1 mm 1 mps 689 mmHg 89%
    21:00 +13°C° 0.1 mm 1 mps 689 mmHg 91%
    22:00 +12°C° 0.1 mm 1 mps 689 mmHg 94%
    23:00 +12°C° 0.1 mm 1 mps 689 mmHg 93%

    Tomorrow, 23 May, Wednesday

    Time Temperature Precipitation Wind Pressure Humidity
    00:00 +12°C° 0.1 mm 1 mps 689 mmHg 93%
    01:00 +12°C° 0.1 mm 1 mps 689 mmHg 93%
    02:00 +12°C° 0.2 mm 1 mps 689 mmHg 93%
    03:00 +12°C° 0.2 mm 1 mps 689 mmHg 93%
    04:00 +12°C° 0.2 mm 1 mps 689 mmHg 94%
    05:00 +13°C° 0.2 mm 1 mps 690 mmHg 92%
    06:00 +14°C° 0.2 mm 1 mps 690 mmHg 89%
    07:00 +15°C° 0.2 mm 1 mps 691 mmHg 87%
    08:00 +16°C° 0.7 mm 1 mps 691 mmHg 83%
    09:00 +18°C° 0.7 mm 1 mps 691 mmHg 79%
    10:00 +20°C° 0.7 mm 1 mps 692 mmHg 74%
    11:00 +20°C° 0.9 mm 1 mps 692 mmHg 73%
    12:00 +21°C° 0.9 mm 1 mps 692 mmHg 71%
    13:00 +21°C° 0.9 mm 1 mps 692 mmHg 69%
    14:00 +21°C° 0.6 mm 1 mps 692 mmHg 70%
    15:00 +21°C° 0.6 mm 1 mps 691 mmHg 71%
    16:00 +21°C° 0.6 mm 1 mps 691 mmHg 72%
    17:00 +19°C° 0.2 mm 1 mps 691 mmHg 78%
    18:00 +18°C° 0.2 mm 1 mps 691 mmHg 84%
    19:00 +16°C° 0.2 mm 1 mps 691 mmHg 91%
    20:00 +15°C° 0.6 mm 1 mps 691 mmHg 92%
    21:00 +14°C° 0.6 mm 1 mps 691 mmHg 94%
    22:00 +13°C° 0.6 mm 1 mps 691 mmHg 95%
    23:00 +13°C° 0 mm 1 mps 691 mmHg 95%

    Day after tomorrow, 24 May, Thursday

    Time Temperature Precipitation Wind Pressure Humidity
    00:00 +13°C° 0 mm 1 mps 691 mmHg 96%
    01:00 +12°C° 0 mm 1 mps 691 mmHg 96%
    02:00 +12°C° 0 mm 1 mps 691 mmHg 96%
    03:00 +12°C° 0 mm 1 mps 691 mmHg 96%
    04:00 +12°C° 0 mm 1 mps 691 mmHg 97%
    05:00 +13°C° 0 mm 1 mps 691 mmHg 95%
    06:00 +14°C° 0 mm 2 mps 691 mmHg 93%
    07:00 +15°C° 0 mm 2 mps 692 mmHg 91%
    08:00 +16°C° 0.3 mm 2 mps 692 mmHg 87%
    09:00 +17°C° 0.3 mm 2 mps 692 mmHg 83%
    10:00 +17°C° 0.3 mm 2 mps 692 mmHg 78%
    11:00 +18°C° 0.3 mm 3 mps 692 mmHg 73%
    12:00 +19°C° 0.3 mm 3 mps 692 mmHg 68%
    13:00 +20°C° 0.3 mm 3 mps 692 mmHg 63%
    14:00 +20°C° 0.4 mm 3 mps 692 mmHg 67%
    15:00 +19°C° 0.4 mm 3 mps 692 mmHg 71%
    16:00 +19°C° 0.4 mm 3 mps 691 mmHg 76%
    17:00 +18°C° 0.1 mm 3 mps 691 mmHg 81%
    18:00 +16°C° 0.1 mm 2 mps 691 mmHg 87%
    19:00 +15°C° 0.1 mm 2 mps 691 mmHg 92%
    20:00 +14°C° 0.1 mm 2 mps 691 mmHg 93%
    21:00 +13°C° 0.1 mm 2 mps 691 mmHg 95%
    22:00 +13°C° 0.1 mm 1 mps 691 mmHg 96%
    23:00 +12°C° 0 mm 1 mps 691 mmHg 96%

    25 May, Friday

    Time Temperature Precipitation Wind Pressure Humidity
    00:00 +12°C° 0 mm 1 mps 691 mmHg 96%
    01:00 +11°C° 0 mm 1 mps 691 mmHg 96%
    02:00 +11°C° 0 mm 1 mps 691 mmHg 96%
    03:00 +11°C° 0 mm 1 mps 691 mmHg 96%
    04:00 +10°C° 0 mm 1 mps 691 mmHg 96%
    05:00 +12°C° 0 mm 1 mps 691 mmHg 92%
    06:00 +13°C° 0 mm 2 mps 691 mmHg 87%
    07:00 +15°C° 0 mm 2 mps 692 mmHg 83%
    08:00 +16°C° 0.1 mm 2 mps 692 mmHg 75%
    09:00 +18°C° 0.1 mm 3 mps 692 mmHg 68%
    10:00 +19°C° 0.1 mm 3 mps 693 mmHg 60%
    11:00 +20°C° 0.2 mm 4 mps 693 mmHg 59%
    12:00 +20°C° 0.2 mm 4 mps 692 mmHg 58%
    13:00 +21°C° 0.2 mm 4 mps 692 mmHg 57%
    14:00 +21°C° 0.3 mm 3 mps 692 mmHg 59%
    15:00 +20°C° 0.3 mm 3 mps 692 mmHg 61%
    16:00 +20°C° 0.3 mm 3 mps 692 mmHg 62%
    17:00 +19°C° 0.1 mm 3 mps 692 mmHg 69%
    18:00 +17°C° 0.1 mm 2 mps 691 mmHg 77%
    19:00 +15°C° 0.1 mm 2 mps 691 mmHg 84%
    20:00 +14°C° 0 mm 2 mps 691 mmHg 87%
    21:00 +13°C° 0 mm 1 mps 691 mmHg 91%
    22:00 +12°C° 0 mm 1 mps 691 mmHg 95%
    23:00 +12°C° 0 mm 1 mps 691 mmHg 95%

    26 May, Saturday

    Time Temperature Precipitation Wind Pressure Humidity
    00:00 +11°C° 0 mm 1 mps 691 mmHg 95%
    01:00 +11°C° 0 mm 1 mps 691 mmHg 95%
    02:00 +11°C° 0 mm 1 mps 691 mmHg 95%
    03:00 +10°C° 0 mm 1 mps 691 mmHg 94%
    04:00 +10°C° 0 mm 1 mps 691 mmHg 94%
    05:00 +12°C° 0 mm 1 mps 691 mmHg 89%
    06:00 +14°C° 0 mm 1 mps 692 mmHg 84%
    07:00 +16°C° 0 mm 1 mps 693 mmHg 78%
    08:00 +19°C° 0 mm 1 mps 693 mmHg 70%
    09:00 +19°C° 0 mm 2 mps 693 mmHg 62%
    10:00 +21°C° 0 mm 2 mps 694 mmHg 55%
    11:00 +21°C° 0 mm 2 mps 694 mmHg 54%
    12:00 +23°C° 0 mm 2 mps 694 mmHg 53%
    13:00 +23°C° 0 mm 2 mps 694 mmHg 52%
    14:00 +23°C° 0 mm 2 mps 693 mmHg 57%
    15:00 +21°C° 0 mm 2 mps 693 mmHg 61%
    16:00 +21°C° 0 mm 2 mps 693 mmHg 65%
    17:00 +19°C° 0.1 mm 2 mps 693 mmHg 74%
    18:00 +17°C° 0.1 mm 2 mps 692 mmHg 82%
    19:00 +16°C° 0.1 mm 1 mps 692 mmHg 90%
    20:00 +15°C° 0 mm 1 mps 692 mmHg 92%
    21:00 +14°C° 0 mm 1 mps 692 mmHg 94%
    22:00 +13°C° 0 mm 1 mps 692 mmHg 96%
    23:00 +12°C° 0 mm 1 mps 692 mmHg 96%

    27 May, Sunday

    Time Temperature Precipitation Wind Pressure Humidity
    00:00 +12°C° 0 mm 1 mps 692 mmHg 96%
    01:00 +12°C° 0 mm 1 mps 692 mmHg 96%
    02:00 +11°C° 0 mm 1 mps 692 mmHg 96%
    03:00 +11°C° 0 mm 1 mps 692 mmHg 96%
    04:00 +11°C° 0 mm 1 mps 692 mmHg 96%
    05:00 +13°C° 0 mm 1 mps 693 mmHg 92%
    06:00 +14°C° 0 mm 1 mps 693 mmHg 87%
    07:00 +16°C° 0 mm 1 mps 693 mmHg 83%
    08:00 +18°C° 0 mm 1 mps 694 mmHg 76%
    09:00 +20°C° 0 mm 1 mps 694 mmHg 69%
    10:00 +21°C° 0 mm 1 mps 694 mmHg 62%
    11:00 +22°C° 0 mm 1 mps 694 mmHg 59%
    12:00 +23°C° 0 mm 2 mps 694 mmHg 56%
    13:00 +24°C° 0 mm 2 mps 694 mmHg 54%
    14:00 +23°C° 0 mm 2 mps 694 mmHg 57%
    15:00 +23°C° 0 mm 2 mps 693 mmHg 59%
    16:00 +21°C° 0 mm 2 mps 693 mmHg 62%
    17:00 +20°C° 0.1 mm 2 mps 693 mmHg 70%
    18:00 +19°C° 0.1 mm 1 mps 692 mmHg 78%
    19:00 +16°C° 0.1 mm 1 mps 692 mmHg 86%
    20:00 +15°C° 0 mm 1 mps 692 mmHg 89%
    21:00 +14°C° 0 mm 1 mps 692 mmHg 91%
    22:00 +13°C° 0 mm 1 mps 692 mmHg 94%
    23:00 +13°C° 0 mm 1 mps 692 mmHg 94%
    Show more